Location: Munkebjergskolens Observatorium
(55.3864°N, 10.3987°E)
Time: 22:47:09
(UTC+01:00)

Envisat - Pass Details

Date: 02 December 2022
Orbit: 763 x 765 km, 98.2° (Epoch: 01 February)

Event Time Altitude Azimuth Distance (km) Brightness Sun altitude
Rises 05:54:08 0° 11° (NNE) 3,249 6.3 -19.8°
Reaches altitude 10° 05:56:36 10° 3° (N) 2,318 5.4 -19.5°
Maximum altitude 06:01:12 35° 299° (WNW) 1,223 3.5 -18.8°
Enters shadow 06:01:26 35° 293° (WNW) 1,227 3.5 -18.8°
